[[{"header":{"parameterUnit":"m.s-1","parameterCategory":1,"la1":30.2991,"la2":30.254,"lo1":-89.0895,"lo2":-89.0444,"dy":0.0017,"dx":0.0017,"nx":28,"ny":28,"refTime":"2026-01-02T09:00:00:Z","depth":0,"parameterNumber":2,"parameterNumberName":"U-component_of_WINDS"},"data":[0,0,0,0,0,0,0,0,0,0,0,0,0,0,0,0,0,0,0,0,0,0,0,0,0,0,0,0,0,0,0,0,0,0,0,0,0,0,0,0,0,0,0,0,0,0,0,0,0,0,0,0,0,0,0,0,0,0,1.8743,1.8745,0,1.8938,1.894,1.8942,1.8963,1.8961,1.8959,1.8957,1.916,1.9167,1.9174,0,0,0,0,0,0,0,0,0,0,0,0,0,1.8392,1.8398,1.8743,1.8745,1.8748,1.8937,1.894,1.8943,1.8963,1.8961,1.8958,1.8956,1.9158,1.9166,1.9175,0,0,0,0,0,0,0,0,0,0,0,0,0,1.8561,1.84,1.8742,1.8781,1.8786,1.8937,1.894,1.8944,1.8964,1.8961,1.8958,1.8955,1.9155,1.9166,1.9176,1.9304,0,0,1.921,1.9214,0,0,0,0,0,0,0,0,1.8552,1.8574,1.8773,1.8778,1.8784,1.8923,1.8891,1.9064,1.8964,1.8896,1.8957,1.8953,1.9084,1.91,1.9144,1.9313,1.9322,1.9211,1.9217,1.9222,1.9225,0,0,0,0,0,0,0,1.854,1.8566,1.882,1.8775,1.8783,1.8789,1.881,1.8924,1.9005,1.8902,1.8904,1.8927,1.9087,1.9133,1.9149,1.9325,1.921,1.922,1.9227,1.9231,1.961,1.9614,0,0,0,0,0,0,1.8521,1.8556,1.8814,1.8826,1.8658,1.8798,1.8821,1.8882,1.9003,1.9019,1.8929,1.8927,1.9116,1.9136,1.9156,1.9314,1.9222,1.9232,1.9238,1.9607,1.9611,1.9615,0,0,0,0,0,0,1.8513,1.8543,1.8806,1.8692,1.8725,1.8807,1.8875,1.8887,1.8933,1.9024,1.9039,1.8961,1.9114,1.9141,1.9267,1.9321,1.9237,1.9247,1.9603,1.9608,1.9613,1.963,0,0,0,0,0,0,1.8503,1.854,1.8589,1.8692,1.8731,1.8912,1.8878,1.8893,1.8952,1.8951,1.9058,1.9073,1.9114,1.925,1.9278,1.9335,1.9255,1.9598,1.9605,1.9611,1.9625,1.9636,1.9644,0,0,0,0,0,1.849,1.8586,1.8591,1.8622,1.8793,1.8915,1.8938,1.8982,1.8956,1.9006,1.9064,1.907,1.9311,1.9263,1.9294,1.9355,1.9595,1.9603,1.9611,1.9621,1.9634,1.9644,0,0,0,0,0,0,1.8488,1.86,1.8607,1.8739,1.8818,1.8919,1.8983,1.8994,1.9082,1.9078,1.913,1.9154,1.9278,1.933,1.9274,1.9486,1.945,1.9465,1.9448,1.946,1.947,1.9455,1.9264,0,0,0,0,0,1.8502,1.8591,1.8685,1.8793,1.8832,1.89,1.8955,1.8983,1.9066,1.91,1.9167,1.9249,1.9344,1.9405,1.9497,1.9633,1.9657,1.969,1.97,1.9707,1.9719,1.9797,1.9813,1.9641,1.9641,1.9641,0,0,1.8534,1.8606,1.8659,1.8794,1.8858,1.895,1.8928,1.9026,1.9096,1.9115,1.9238,1.9291,1.9386,1.9518,1.958,1.9565,1.9772,1.9717,1.9722,1.9731,1.9807,1.9823,1.9837,1.9646,1.9645,1.9645,0,0,1.8638,1.8702,1.8799,1.8863,1.896,1.9005,1.9028,1.9129,1.9164,1.9288,1.9305,1.9389,1.955,1.9617,1.9673,1.9804,1.9813,1.9832,1.9883,1.9957,1.9971,1.9983,2.0031,2.0048,1.9844,1.9844,1.9844,0,1.8666,1.8804,1.8848,1.8946,1.9005,1.9026,1.9126,1.9187,1.9309,1.935,1.9331,1.9534,1.96,1.9749,1.978,1.9824,1.9854,1.9821,1.9965,1.9978,1.999,2.0037,2.0054,1.9846,1.9846,1.9846,1.9845,0,1.8833,1.8929,1.8996,1.9113,1.918,1.9278,1.9338,1.9401,1.9423,1.947,1.9598,1.9677,1.9786,1.9823,1.9845,1.9976,1.9963,1.9954,1.992,2.0008,2.0052,2.007,1.9849,1.9848,1.9847,1.9847,0,0,1.8942,1.9081,1.9105,1.9159,1.9268,1.9343,1.9443,1.9549,1.9602,1.9686,1.9772,1.9908,1.9901,1.9963,1.9994,2.0059,2.016,2.0043,2.0046,2.0063,2.031,2.0317,2.0337,2.0166,2.017,2.0172,2.0302,0,1.9059,1.9237,1.9279,1.9432,1.9522,1.9543,1.9631,1.9707,1.9755,1.9839,1.9892,1.9988,1.997,2.0009,2.0074,2.0133,2.021,2.0125,2.0248,2.0252,2.0224,2.036,2.0367,2.0486,2.032,2.0323,2.0325,0,1.922,1.9307,1.9468,1.9566,1.9605,1.9682,1.9783,1.9863,1.9951,1.9981,2.0052,2.0076,2.0182,2.0142,2.029,2.0231,2.0284,2.0321,2.0327,2.0341,2.0294,2.0379,2.0525,2.0543,2.0353,2.0351,2.0349,0,1.9285,1.9442,1.9558,1.9604,1.972,1.9774,1.9826,1.9911,1.9972,2.0061,2.0101,2.0201,2.0256,2.0334,2.0385,2.035,2.053,2.0493,2.0559,2.0558,2.0597,2.0594,2.0755,2.0629,2.0629,2.0628,2.0628,0,1.9412,1.951,1.9589,1.9661,1.9772,1.9821,1.993,1.9982,2.0058,2.0141,2.0166,2.0245,2.0307,2.0394,2.0435,2.0552,2.0577,2.0605,2.0615,2.0604,2.06,2.064,2.0634,2.0633,2.0632,2.0631,2.063,0,1.9503,1.9559,1.9689,1.9788,1.9816,1.9893,1.998,2.0051,2.0099,2.0205,2.0233,2.0309,2.0413,2.0471,2.0602,2.063,2.0762,2.0767,2.0731,2.0736,2.0799,2.0793,2.0992,2.1022,2.0875,2.0876,2.0877,0,1.9581,1.9657,1.9765,1.9822,1.9874,1.9966,2.0028,2.008,2.0144,2.0251,2.031,2.0415,2.0502,2.0668,2.0736,2.0837,2.0846,2.0909,2.0861,2.0848,2.0849,2.0844,2.0852,2.0917,2.0919,2.092,2.092,0,1.9714,1.9738,1.9826,1.9925,1.9998,2.0079,2.0159,2.0204,2.027,2.0341,2.0447,2.0514,2.0648,2.0753,2.086,2.0914,2.093,2.0935,2.0956,2.0945,2.0922,2.0937,2.0755,2.093,2.0929,2.0929,2.0928,2.0928,1.9802,1.9871,1.9958,2.0056,2.0121,2.0195,2.0267,2.0324,2.0413,2.0526,2.0551,2.0663,2.0751,2.0896,2.0953,2.1043,2.1032,2.1061,2.1069,2.1076,2.1079,2.0907,2.1063,2.1062,2.1062,2.1062,2.1062,0,1.9937,1.9994,2.0084,2.0194,2.0272,2.0277,2.0366,2.0431,2.0529,2.0609,2.0694,2.0817,2.092,2.0996,2.1101,2.1158,2.1168,2.1184,2.1181,2.1194,2.1083,2.1055,2.1175,2.1175,2.1174,2.1174,2.1174,2.1174,2.0017,2.0134,2.0169,2.0319,2.0376,2.0486,2.0536,2.0605,2.067,2.0805,2.089,2.0938,2.1018,2.1129,2.1223,2.1243,2.1281,2.1297,2.1318,2.1213,2.1201,2.119,2.1164,2.1305,2.1305,2.1422,2.1423,2.1424]},{"header":{"parameterUnit":"m.s-1","parameterCategory":1,"la1":30.2991,"la2":30.254,"lo1":-89.0895,"lo2":-89.0444,"dy":0.0017,"dx":0.0017,"nx":28,"ny":28,"refTime":"2026-01-02T09:00:00:Z","depth":0,"parameterNumber":3,"parameterNumberName":"V-component_of_WINDS"},"data":[0,0,0,0,0,0,0,0,0,0,0,0,0,0,0,0,0,0,0,0,0,0,0,0,0,0,0,0,0,0,0,0,0,0,0,0,0,0,0,0,0,0,0,0,0,0,0,0,0,0,0,0,0,0,0,0,0,0,3.1666,3.1667,0,3.1752,3.1752,3.1753,3.171,3.1708,3.1705,3.1703,3.1787,3.1791,3.1796,0,0,0,0,0,0,0,0,0,0,0,0,0,3.1462,3.1466,3.1666,3.1667,3.1668,3.1751,3.1753,3.1754,3.171,3.1707,3.1705,3.1702,3.1786,3.1791,3.1796,0,0,0,0,0,0,0,0,0,0,0,0,0,3.1549,3.1467,3.1666,3.1657,3.1657,3.1751,3.1753,3.1754,3.1711,3.1707,3.1704,3.1701,3.1784,3.179,3.1797,3.1904,0,0,3.1817,3.1819,0,0,0,0,0,0,0,0,3.1544,3.1557,3.1657,3.1657,3.1658,3.1717,3.1711,3.1804,3.1712,3.169,3.1703,3.1699,3.1766,3.1774,3.1797,3.1908,3.1912,3.1817,3.1821,3.1824,3.1826,0,0,0,0,0,0,0,3.1538,3.1553,3.17,3.1658,3.1659,3.1647,3.1656,3.1729,3.1746,3.1692,3.1689,3.17,3.1766,3.1791,3.1799,3.1913,3.1817,3.1823,3.1827,3.1829,3.2116,3.212,0,0,0,0,0,0,3.1533,3.1548,3.1697,3.1702,3.1592,3.1653,3.1663,3.1701,3.1745,3.1749,3.1702,3.1697,3.1782,3.1791,3.1802,3.1931,3.1824,3.183,3.1834,3.2113,3.2117,3.2121,0,0,0,0,0,0,3.1529,3.1547,3.1693,3.1624,3.1642,3.1661,3.1703,3.1704,3.173,3.1753,3.1756,3.1726,3.1779,3.1793,3.1879,3.1933,3.1833,3.1839,3.2108,3.2114,3.2119,3.219,0,0,0,0,0,0,3.1523,3.1546,3.1587,3.1626,3.1646,3.1771,3.1707,3.1709,3.1742,3.1736,3.1775,3.1779,3.1778,3.187,3.1886,3.194,3.1844,3.2103,3.2111,3.2117,3.2183,3.2197,3.2209,0,0,0,0,0,3.1516,3.1603,3.159,3.1608,3.1699,3.1774,3.1786,3.1784,3.1746,3.1788,3.1803,3.1777,3.1925,3.1879,3.1897,3.1954,3.21,3.2109,3.2117,3.2177,3.2194,3.2209,0,0,0,0,0,0,3.1569,3.1608,3.1593,3.1696,3.1732,3.1767,3.1819,3.1802,3.1849,3.1842,3.1836,3.1846,3.1936,3.1953,3.1902,3.206,3.2006,3.2019,3.2046,3.2062,3.2076,3.2069,3.1849,0,0,0,0,0,3.1593,3.1652,3.1682,3.1769,3.1788,3.1801,3.1833,3.1829,3.1866,3.1881,3.1902,3.1938,3.1992,3.2028,3.2079,3.2185,3.2192,3.2232,3.2246,3.2257,3.2267,3.2324,3.2342,3.2149,3.2149,3.2149,0,0,3.1642,3.167,3.1708,3.178,3.1808,3.1869,3.1814,3.188,3.1925,3.189,3.1974,3.1991,3.2031,3.2128,3.2171,3.2145,3.2323,3.2267,3.2276,3.2281,3.2335,3.2353,3.2369,3.2154,3.2153,3.2153,0,0,3.1763,3.179,3.1866,3.1895,3.1939,3.1947,3.1965,3.2003,3.2013,3.2097,3.2073,3.2125,3.2219,3.2248,3.2276,3.2408,3.2387,3.2425,3.2494,3.255,3.2565,3.2579,3.2626,3.2643,3.2435,3.2436,3.2436,0,3.1818,3.1909,3.1907,3.1976,3.2008,3.1981,3.2058,3.2086,3.2143,3.2166,3.2136,3.2253,3.2278,3.2381,3.2414,3.2436,3.2457,3.242,3.2564,3.2577,3.259,3.2635,3.2653,3.244,3.2439,3.2439,3.2439,0,3.1975,3.2039,3.2095,3.2153,3.2191,3.2263,3.2271,3.231,3.2302,3.2313,3.2399,3.2428,3.2485,3.2509,3.2501,3.2612,3.2594,3.2564,3.251,3.2613,3.2655,3.2672,3.2446,3.2445,3.2443,3.2442,0,0,3.2132,3.2188,3.2208,3.2235,3.2281,3.2329,3.24,3.2457,3.2491,3.2531,3.259,3.267,3.2643,3.2673,3.2669,3.2718,3.2821,3.2682,3.2682,3.2707,3.2944,3.2967,3.2987,3.2807,3.281,3.2813,3.2941,0,3.2256,3.2381,3.2381,3.2496,3.2555,3.253,3.2592,3.2626,3.2638,3.2689,3.2701,3.2758,3.2718,3.2737,3.2784,3.2799,3.2869,3.2789,3.2861,3.2864,3.2853,3.3009,3.3034,3.3153,3.2958,3.2961,3.2963,0,3.2417,3.2465,3.2586,3.2625,3.2649,3.2705,3.2757,3.2806,3.2844,3.2849,3.2885,3.2873,3.2943,3.2887,3.2984,3.293,3.2959,3.2971,3.2976,3.2982,3.292,3.3021,3.3191,3.3209,3.2989,3.2986,3.2985,0,3.252,3.2614,3.2699,3.2722,3.2768,3.2808,3.2829,3.2864,3.2898,3.2943,3.2966,3.3018,3.3047,3.3087,3.3089,3.3048,3.3188,3.3131,3.3193,3.3193,3.3224,3.3222,3.3402,3.3242,3.3242,3.3242,3.3241,0,3.2659,3.2734,3.2746,3.2798,3.2881,3.288,3.2962,3.298,3.3011,3.3066,3.3047,3.3098,3.3098,3.315,3.3152,3.3232,3.3245,3.325,3.325,3.3253,3.3252,3.3272,3.3264,3.3246,3.3245,3.3244,3.3244,0,3.2787,3.2798,3.2889,3.2926,3.2937,3.2997,3.3028,3.3078,3.3088,3.3157,3.3173,3.3189,3.325,3.3256,3.3325,3.3326,3.3424,3.3414,3.3411,3.341,3.3472,3.3466,3.3671,3.3698,3.352,3.3522,3.3523,0,3.2875,3.2933,3.2977,3.3013,3.3037,3.3094,3.313,3.3131,3.3168,3.3216,3.326,3.3318,3.3365,3.3463,3.348,3.3533,3.3524,3.3592,3.3532,3.3533,3.3526,3.3523,3.3528,3.3604,3.3606,3.3608,3.3609,0,3.3031,3.3034,3.3086,3.3141,3.3185,3.3227,3.3267,3.3298,3.3303,3.3346,3.3408,3.3445,3.3517,3.3575,3.3627,3.3647,3.3629,3.3628,3.3645,3.3648,3.3645,3.3648,3.3444,3.3623,3.3622,3.3621,3.362,3.3619,3.3142,3.3193,3.3232,3.3291,3.3322,3.336,3.3408,3.3425,3.3478,3.3537,3.3534,3.3603,3.3639,3.3708,3.3732,3.3785,3.3762,3.3787,3.3793,3.3799,3.3806,3.3636,3.3794,3.3794,3.3793,3.3793,3.3793,0,3.3297,3.3321,3.3376,3.3434,3.348,3.346,3.3504,3.3544,3.3605,3.3641,3.3688,3.376,3.3816,3.3838,3.3893,3.3931,3.3925,3.3946,3.3943,3.3948,3.3823,3.3803,3.3951,3.3951,3.3951,3.3951,3.3951,3.395,3.3383,3.3468,3.3475,3.3574,3.3597,3.3666,3.3692,3.3727,3.3756,3.3838,3.3885,3.3899,3.393,3.3987,3.4038,3.4043,3.4064,3.4089,3.409,3.3973,3.3957,3.3942,3.3923,3.4093,3.4094,3.4211,3.4212,3.4213]}]]